Theta_e
342 343 346 346 345 350 350 351 351 350 349 350 349 350 349 349 349 348 348 348 348 347 347 346 347 346 345 344 343 343 343 342 342 342 342 342 343 343 343 344 344 345 347 347 348 349 350 350 351 351 350 350 347 348 350 349 348 349 350 349 348 349 350 350 351 350 350 350 349 349 349 349 349 350 351 351 351 350 349 349 349 349 350 350 350
343 345 345 347 344 348 350 351 351 350 349 349 349 349 348 349 348 347 347 346 347 347 347 346 346 345 344 343 343 342 342 342 341 342 342 342 343 343 343 344 344 345 346 347 348 349 349 350 350 350 350 350 348 347 347 347 348 349 349 349 349 350 351 351 349 348 348 348 348 349 349 348 349 349 350 351 351 350 349 349 349 348 348 351 350
347 345 345 347 345 346 349 350 350 350 349 349 349 348 348 349 348 347 347 346 345 346 345 344 344 344 344 343 342 342 341 341 342 341 343 341 342 342 343 344 345 344 345 347 347 348 349 350 350 350 350 349 349 347 347 347 346 348 349 349 350 351 351 350 349 348 348 348 348 348 346 348 349 348 348 349 350 349 348 349 348 347 348 350 350
341 344 345 345 342 344 347 349 350 350 349 349 348 347 348 348 348 347 346 346 345 344 344 343 343 343 343 343 342 341 341 341 343 342 342 342 341 342 343 344 345 345 344 346 347 348 348 350 351 350 349 349 349 348 344 346 346 349 349 349 350 350 350 349 349 348 348 348 347 345 346 348 347 348 348 349 350 349 347 348 347 349 349 349 349
340 343 344 345 345 343 345 348 349 349 349 348 348 348 347 348 347 347 346 346 345 344 344 344 342 343 342 342 341 341 341 341 343 343 344 344 343 342 342 343 342 344 345 346 347 348 348 349 351 350 349 347 346 347 347 346 348 349 349 351 351 350 349 351 349 349 347 346 346 344 346 347 347 347 347 348 349 348 347 348 349 349 348 349 348
339 341 343 344 344 345 343 346 348 348 348 348 347 347 347 347 347 346 346 346 346 345 344 344 343 343 343 342 342 342 342 342 343 342 342 346 344 344 344 344 343 343 346 346 348 348 348 349 349 349 350 345 345 345 345 344 347 349 350 350 350 350 349 350 348 347 346 345 343 344 345 346 346 347 347 348 349 347 348 349 349 348 349 348 348
340 341 342 343 344 343 341 344 348 348 347 347 347 347 347 347 346 346 346 346 346 345 345 345 344 344 343 343 343 343 343 342 343 343 343 346 346 345 345 345 345 344 345 346 346 347 349 349 350 349 349 347 346 346 345 346 347 347 349 350 349 349 349 348 346 344 343 344 346 344 343 345 346 347 346 347 349 348 349 348 348 348 349 348 349
339 341 341 342 343 342 341 344 346 347 347 346 346 346 347 347 346 346 346 346 346 346 345 345 345 345 344 344 343 343 344 342 341 342 345 345 345 346 346 346 346 347 347 346 345 347 349 350 349 349 348 346 346 345 344 345 344 346 348 349 348 348 347 346 344 343 343 344 344 343 343 344 346 347 347 348 348 349 348 348 348 347 348 347 345
337 338 340 341 343 339 340 342 344 347 346 346 346 346 346 347 346 346 346 345 345 346 346 345 345 345 344 344 344 344 345 345 344 344 343 343 344 345 346 346 346 347 347 346 346 347 347 349 348 349 350 346 345 345 345 344 346 345 348 348 346 346 345 344 343 341 343 345 344 343 344 344 345 346 347 347 348 348 347 347 347 348 348 345 344
336 337 338 340 342 338 339 340 343 345 346 346 346 346 346 346 346 346 346 345 345 345 346 345 344 344 344 344 344 343 343 344 344 343 342 343 344 344 345 346 346 347 348 349 347 347 348 349 348 349 349 346 345 344 343 343 346 346 347 345 346 345 343 342 342 341 343 344 343 344 344 342 344 344 347 347 348 348 347 343 342 343 344 344 344
336 336 336 338 340 337 338 340 341 343 345 345 345 346 346 346 345 345 345 345 345 344 345 345 344 343 343 344 345 343 342 343 343 342 341 341 342 343 345 346 346 347 347 348 348 347 347 348 349 349 347 346 344 344 342 344 345 344 345 345 345 344 343 342 340 343 343 344 343 344 343 339 344 344 347 347 347 346 343 341 341 342 345 346 347
334 335 335 336 333 335 336 338 340 342 343 343 344 345 345 345 345 345 345 345 344 344 344 344 344 343 343 344 343 342 342 342 342 342 341 341 342 343 344 345 346 346 347 347 348 348 348 348 346 346 347 344 343 343 343 344 345 345 344 344 344 343 341 340 341 342 343 343 343 344 344 343 343 344 346 347 347 346 343 343 344 346 346 345 345
333 333 334 334 334 333 334 337 339 340 342 342 343 344 345 345 345 344 345 344 344 343 343 343 342 343 345 344 343 342 342 342 342 341 341 341 342 343 345 346 346 346 347 347 348 349 348 347 346 345 345 345 344 344 343 344 343 343 344 343 342 341 339 338 341 341 342 343 343 344 344 344 344 344 345 346 347 346 345 345 345 345 346 346 344
334 332 331 332 333 330 331 334 337 339 340 341 342 343 344 344 344 345 344 344 344 343 343 342 342 344 344 343 343 342 342 342 342 341 341 342 342 343 345 345 345 346 346 347 347 349 349 346 346 344 344 344 342 342 343 342 343 342 342 341 340 339 336 335 337 341 342 342 343 343 343 343 345 343 344 345 347 346 345 344 343 343 345 345 343
331 332 331 331 332 332 327 331 334 336 338 340 340 341 342 343 343 343 343 344 343 343 343 342 343 344 343 343 342 342 341 341 341 341 341 342 343 344 344 344 345 345 346 346 347 347 347 345 346 342 342 342 341 342 343 342 342 341 340 338 337 336 335 339 340 342 341 341 342 342 342 343 341 341 342 342 346 346 345 344 344 344 344 343 343
331 332 332 330 332 333 332 327 330 333 335 337 338 339 340 341 342 342 343 343 342 342 341 342 343 343 342 342 342 341 341 341 341 341 341 342 343 343 343 344 344 345 345 346 346 347 346 346 345 343 341 341 341 343 341 342 341 340 339 337 334 333 331 333 340 341 340 341 341 342 342 342 339 341 342 341 346 345 344 344 343 342 342 341 342
328 329 330 331 333 333 333 333 330 328 330 331 333 336 337 339 341 341 342 342 342 341 341 342 342 342 342 342 341 341 340 340 340 341 341 341 342 342 342 342 343 343 343 344 345 345 346 343 342 340 341 342 341 339 339 338 340 338 337 335 334 333 330 332 340 339 339 340 341 341 341 342 340 342 342 342 344 345 344 344 343 343 342 341 340
327 327 328 330 331 331 332 334 333 332 333 331 329 329 332 336 338 339 339 340 341 341 341 341 342 341 340 339 338 337 337 339 339 340 340 341 341 341 341 341 342 343 341 341 343 344 343 341 340 340 339 339 339 338 337 337 337 336 334 333 332 331 329 329 340 339 340 338 340 340 341 338 339 340 342 343 344 342 342 342 341 339 340 340 340
326 326 328 328 329 331 331 332 333 333 333 333 335 334 329 331 334 335 337 338 339 338 338 340 338 338 337 335 334 331 331 332 333 333 336 337 336 335 338 341 341 341 340 339 341 343 341 341 341 340 339 338 337 338 337 337 334 334 334 331 330 328 326 332 340 338 339 339 340 340 340 336 340 342 343 342 343 342 340 341 341 340 340 340 340
324 325 326 327 329 329 331 331 332 332 332 333 334 336 331 328 331 333 334 336 336 336 336 336 333 330 330 330 327 332 329 332 324 331 329 334 331 332 333 339 339 338 338 338 340 341 340 339 337 339 339 339 339 338 336 335 334 333 331 329 326 323 335 338 339 338 338 338 338 339 336 336 338 342 341 341 340 340 342 341 340 339 339 339 338
322 322 324 325 327 328 329 329 330 331 332 332 333 335 335 328 329 328 329 331 333 332 333 330 326 324 324 324 324 336 339 339 338 337 326 338 325 326 329 336 336 335 335 337 338 340 340 340 339 339 338 338 335 332 331 333 332 331 330 326 322 334 335 336 338 337 337 337 338 339 335 337 338 340 340 341 339 340 340 339 338 338 338 338 337
321 322 322 323 324 326 327 328 329 331 331 331 333 334 336 333 336 338 337 334 330 328 334 339 329 339 325 333 337 337 337 339 340 331 339 337 332 323 326 333 335 334 333 336 337 339 339 339 339 339 337 335 329 333 330 327 328 328 325 322 331 333 334 335 335 336 336 337 337 335 335 335 338 339 340 340 339 339 338 338 338 337 337 337 336
316 320 322 323 324 324 327 326 329 331 331 331 332 334 334 334 336 337 337 332 334 335 338 338 340 338 340 338 335 337 338 339 339 336 336 326 335 321 326 331 332 331 331 331 335 337 337 337 338 337 335 330 331 333 333 331 329 319 320 329 332 332 332 333 334 335 336 336 337 332 335 336 338 339 340 339 339 339 339 338 337 336 336 335 335
310 315 318 323 324 324 326 328 328 330 331 330 332 332 333 334 335 336 336 337 338 338 339 338 338 339 340 338 336 337 339 338 322 317 322 336 333 320 324 324 325 325 326 329 328 333 337 336 335 333 329 327 330 330 329 328 329 331 331 330 330 331 331 331 332 333 335 335 336 331 335 337 336 338 338 338 338 338 337 336 336 335 336 335 334
313 313 315 317 320 323 325 326 328 329 330 330 330 331 332 333 334 334 335 336 337 337 337 337 336 337 339 337 336 337 338 336 337 336 336 335 335 334 334 336 334 334 327 334 332 330 328 324 326 326 327 326 326 326 327 327 327 329 328 328 328 329 330 330 332 333 334 335 334 329 333 336 337 337 337 338 339 337 337 336 336 335 335 334 333
308 310 312 313 316 321 324 324 326 328 329 330 329 330 330 332 332 333 334 335 336 336 336 336 336 337 337 336 336 337 336 335 334 335 335 334 334 335 334 335 333 332 333 332 330 330 327 324 322 320 321 322 322 322 323 323 324 325 327 327 327 327 328 331 330 333 333 334 332 327 331 334 335 335 336 338 337 337 335 335 335 334 334 333 333
308 309 311 312 314 317 319 324 325 326 328 330 330 329 330 331 332 333 332 334 335 335 334 334 334 334 337 336 334 333 333 332 332 333 332 333 333 334 334 334 332 332 333 331 329 327 323 322 321 320 319 319 319 320 321 322 323 323 322 324 325 325 326 326 326 332 335 333 326 324 327 331 334 335 335 336 336 336 335 334 334 334 333 333 332
305 305 307 309 312 313 316 320 322 325 326 328 328 328 329 329 330 331 331 331 333 333 333 333 333 332 333 333 331 332 331 331 331 331 331 333 332 332 333 332 331 332 331 331 326 325 323 320 319 319 318 318 318 318 319 320 321 321 321 323 324 325 326 325 326 330 333 333 330 324 325 328 331 333 333 334 335 335 335 333 334 333 333 333 331
303 304 306 308 310 311 313 317 320 321 325 326 326 326 327 329 330 330 330 327 330 332 332 332 332 331 332 332 332 331 330 330 331 331 331 331 331 332 331 331 330 329 329 328 325 323 321 319 318 318 318 317 317 316 317 318 320 321 321 322 324 325 324 324 326 330 330 331 330 327 322 326 330 332 333 333 334 334 334 333 333 332 332 332 331
302 304 305 305 307 310 311 314 317 320 324 325 326 326 326 328 329 330 329 329 329 331 332 331 331 331 330 331 331 331 329 330 331 330 330 330 329 329 329 329 328 327 327 326 324 322 320 320 318 317 317 317 316 315 316 317 319 318 320 321 322 323 324 325 328 329 329 328 331 328 319 323 328 332 333 332 332 334 333 332 332 332 332 332 331
303 303 304 306 308 308 310 311 314 319 324 324 325 326 327 327 328 330 330 329 329 329 330 330 330 330 330 330 331 331 331 331 332 330 329 329 327 326 327 328 326 326 328 326 325 322 322 321 317 317 317 316 316 316 316 316 317 317 316 316 319 321 323 325 328 328 328 328 326 326 325 320 325 328 329 332 331 331 332 332 332 332 332 333 331
303 303 304 305 305 306 309 312 314 315 321 322 323 326 327 327 328 329 329 330 329 328 328 329 327 329 329 329 330 330 330 331 333 330 330 329 326 325 325 326 325 326 326 325 324 323 322 320 317 318 317 316 316 316 316 316 315 315 315 314 317 319 321 323 324 323 323 324 325 326 327 326 320 323 326 330 330 330 330 331 331 331 332 332 331
304 304 305 305 306 307 309 310 313 315 317 320 322 324 326 327 328 328 327 328 329 328 327 327 328 328 328 328 329 330 330 331 333 331 329 329 327 325 324 323 325 326 325 323 321 322 320 319 317 317 317 316 315 315 316 316 314 314 315 315 318 319 319 319 320 320 321 322 323 325 326 326 326 318 321 324 328 329 329 329 330 330 331 330 331
302 304 305 304 306 308 308 310 311 313 315 318 321 322 325 325 327 329 327 326 327 326 326 327 327 327 327 327 328 329 329 330 332 331 329 327 327 325 324 324 324 322 323 322 321 320 319 318 316 317 314 315 314 314 314 314 314 314 314 316 317 318 320 319 320 320 321 322 324 326 326 327 327 326 324 319 322 325 329 330 329 329 329 328 329
302 302 302 304 305 306 308 309 309 309 311 315 319 322 323 324 327 328 327 326 326 326 326 327 326 326 327 327 328 329 328 329 330 329 328 328 326 324 325 325 323 323 323 323 322 321 320 318 317 316 316 315 314 313 314 313 313 313 313 314 316 318 319 317 317 317 319 321 325 326 326 326 326 326 326 325 315 319 324 328 329 328 328 327 328
301 301 302 303 303 305 306 308 310 310 311 311 314 319 322 324 325 323 327 327 326 324 325 326 326 326 326 327 327 328 327 328 328 328 327 327 326 324 324 324 322 322 322 323 322 321 319 318 319 317 315 314 313 313 313 313 314 313 313 315 315 315 316 314 314 313 315 321 324 326 326 326 325 325 322 326 325 323 320 324 327 327 326 326 327
301 301 301 301 302 303 305 306 307 309 309 310 312 317 319 321 325 327 326 326 325 325 324 326 326 325 326 327 326 326 326 327 328 328 326 326 326 325 323 322 321 321 321 322 322 321 319 318 319 318 317 314 313 312 312 312 311 312 313 314 313 314 313 313 314 311 311 317 321 323 324 325 323 315 326 326 325 324 318 320 324 324 322 324 325
302 301 301 301 301 302 303 304 305 306 308 309 312 313 316 320 323 326 325 325 325 325 325 325 324 325 325 324 326 326 325 327 327 328 326 326 326 324 323 322 321 321 320 321 320 321 320 318 316 317 316 314 313 312 311 311 310 309 311 312 312 313 311 311 310 308 312 314 319 321 322 322 323 323 323 324 324 324 323 319 318 317 315 320 325
301 300 300 301 301 301 301 302 303 304 305 307 309 310 314 318 321 323 325 325 326 325 325 326 324 324 324 325 325 325 324 326 327 327 326 325 324 323 321 321 320 319 319 319 319 319 318 318 316 315 315 316 314 313 312 311 309 309 309 309 309 309 310 310 309 309 311 313 317 318 321 322 323 323 322 323 324 325 323 322 322 322 320 318 323
300 299 300 300 299 300 301 301 302 303 304 305 307 307 308 309 315 319 321 321 323 322 324 325 326 323 324 325 324 325 324 325 326 326 326 324 322 320 320 319 319 319 318 317 316 316 316 316 314 312 312 313 313 312 312 310 309 308 305 305 305 307 308 308 308 308 308 310 311 316 319 321 322 321 321 322 322 323 324 324 321 322 322 319 320
297 297 297 298 299 299 299 299 300 302 303 304 304 304 303 304 306 310 313 318 320 320 322 323 324 324 324 325 325 324 324 325 324 325 324 321 321 320 318 318 319 318 317 317 318 317 317 317 313 311 311 309 308 310 310 310 307 304 306 305 303 302 304 306 306 306 307 307 309 312 316 319 320 320 320 319 319 321 322 324 325 325 324 324 320
296 296 296 296 297 298 299 298 299 300 302 303 303 303 303 303 303 304 311 314 318 319 319 322 323 324 324 324 324 324 323 323 323 324 324 322 320 318 317 317 318 317 317 317 316 313 315 314 311 309 311 310 307 309 310 311 307 303 302 302 302 301 300 302 303 304 305 306 307 309 312 316 318 318 318 317 316 318 320 321 323 324 325 325 324
297 297 298 298 297 297 297 298 298 299 300 302 302 303 303 303 303 304 306 310 316 320 322 323 322 321 323 324 324 323 322 323 322 322 322 321 320 318 317 316 316 317 315 313 312 312 312 311 310 309 307 309 308 310 311 314 307 307 305 302 297 300 302 303 302 299 302 304 305 308 310 311 314 315 316 315 313 315 317 319 321 321 321 322 322
295 296 296 297 297 297 297 298 298 299 299 300 302 303 303 303 304 304 306 308 311 316 319 322 322 322 321 323 323 323 322 322 322 322 321 320 319 317 316 316 315 315 314 311 310 310 310 310 311 309 308 304 306 306 312 314 311 308 302 303 300 303 297 300 301 299 298 301 304 305 306 307 307 312 313 313 312 312 314 318 318 318 318 318 319
294 296 297 296 296 297 297 298 298 298 299 300 301 302 301 300 301 303 305 306 311 315 316 317 319 320 319 320 322 322 322 319 319 320 320 319 318 317 315 315 314 313 314 312 311 311 310 310 311 309 308 306 306 308 310 313 313 314 308 301 296 300 302 301 301 297 299 301 300 301 302 304 306 309 313 313 312 311 312 314 314 315 315 315 315
293 294 296 296 297 297 297 297 298 299 299 300 300 301 300 298 298 298 298 300 302 305 308 312 315 318 318 320 321 322 321 319 319 320 320 319 318 317 316 314 313 313 313 314 313 312 311 310 310 309 309 309 309 309 308 308 313 313 312 308 305 302 301 300 303 295 297 297 297 297 298 298 301 304 308 309 310 310 311 310 311 312 312 312 312
292 294 296 296 296 296 297 298 297 298 299 300 300 300 300 299 298 297 298 300 301 304 307 311 314 317 319 320 320 321 320 318 317 318 318 318 319 317 316 314 313 313 313 314 313 312 312 312 311 310 309 309 309 308 307 307 309 311 312 309 305 305 307 302 302 300 295 297 298 296 296 296 297 300 304 308 310 310 310 309 309 308 308 309 311
292 293 294 295 296 296 297 297 297 297 298 299 300 301 300 298 298 297 298 298 299 301 304 307 312 313 317 318 318 319 319 320 319 318 318 318 318 318 317 315 314 313 312 312 313 313 313 313 311 311 310 309 310 310 308 307 307 306 309 303 305 307 306 307 308 303 299 294 293 295 295 294 296 295 296 299 304 309 307 306 305 305 304 304 306
292 292 293 294 296 296 297 297 296 296 297 298 298 300 300 299 298 297 296 297 298 300 303 306 309 312 314 317 317 318 319 319 320 319 318 316 313 316 316 316 314 313 310 312 312 313 312 311 309 310 309 309 309 311 309 307 309 307 302 299 304 305 305 305 303 303 301 298 294 294 293 294 296 296 295 293 295 299 303 304 303 303 302 300 302
292 293 293 295 294 295 295 295 295 295 296 297 298 299 300 300 298 298 297 297 297 298 301 303 307 310 312 314 317 316 317 317 318 319 317 316 314 315 316 315 315 313 310 311 311 311 311 310 310 311 310 309 310 309 309 309 310 308 304 302 303 303 304 305 304 303 303 303 297 296 297 295 295 291 291 293 294 296 298 299 300 300 300 300 299
291 292 292 292 293 295 294 294 295 295 295 296 296 298 299 299 299 298 297 296 297 297 298 299 302 306 308 310 314 316 317 316 317 317 317 316 314 314 315 315 315 312 311 312 311 310 310 310 311 311 310 310 309 309 308 308 309 307 305 304 305 305 303 302 302 303 303 300 299 300 299 300 302 294 291 293 293 294 296 298 299 298 299 300 300
Wind_Speed
9 7 7 6 5 10 13 12 13 13 14 14 14 13 13 13 12 12 10 9 9 9 9 10 10 10 9 9 9 9 9 9 9 9 9 9 10 11 11 11 11 12 12 12 12 12 12 13 13 14 13 14 14 11 13 15 16 17 16 16 16 16 15 14 12 12 13 13 14 15 13 13 13 14 15 15 14 11 10 11 11 11 12 14 15
9 9 8 10 9 9 12 13 13 13 13 13 13 12 13 13 13 12 11 10 10 9 8 9 9 10 10 9 9 9 9 10 11 10 10 10 10 11 12 12 12 12 13 13 13 13 13 14 14 15 14 15 15 17 14 15 17 17 16 16 16 15 14 11 12 12 12 12 12 12 12 13 12 14 15 16 13 13 8 6 11 12 11 14 15
4 8 7 10 8 8 10 13 14 14 13 13 13 12 12 12 12 11 11 11 11 10 9 9 9 10 10 10 10 10 9 9 10 11 11 12 11 11 11 12 13 13 13 13 14 14 14 14 15 15 15 17 18 18 16 20 18 17 17 17 15 14 12 13 13 12 12 12 11 11 11 11 11 13 14 16 12 10 4 3 6 13 13 17 15
3 7 7 8 6 7 10 11 13 14 14 14 13 12 12 12 12 11 12 11 12 11 10 10 11 11 11 11 11 11 10 9 10 11 11 12 11 11 11 12 13 13 13 13 14 15 15 15 15 16 14 16 17 19 18 16 15 18 17 17 15 11 12 13 13 12 12 12 11 12 10 11 10 12 14 15 12 8 3 6 10 14 19 17 16
4 6 7 8 11 9 11 10 14 15 15 14 13 14 14 14 13 12 11 12 13 12 11 11 12 11 12 12 12 12 11 11 11 11 12 12 12 11 12 12 13 14 14 14 15 15 15 16 15 16 14 14 17 20 17 18 20 19 15 11 12 12 13 11 12 12 13 13 12 11 10 11 10 12 14 15 12 6 5 9 13 16 17 18 18
5 6 7 7 10 12 11 11 13 15 15 15 14 15 15 15 13 12 11 10 12 12 12 12 12 12 12 12 11 12 11 12 12 12 12 14 12 12 13 14 14 14 14 15 16 17 17 17 16 16 17 15 14 14 17 17 20 19 15 13 13 13 13 11 12 13 11 13 11 8 10 11 10 10 15 15 12 10 7 10 14 16 16 19 18
6 5 6 8 8 11 11 13 13 16 16 15 15 15 16 15 14 13 13 13 14 13 13 12 13 13 13 12 12 12 13 12 12 12 13 13 14 14 14 14 15 14 15 15 16 17 18 18 17 17 18 19 19 19 19 18 18 19 16 13 13 12 13 13 13 13 12 11 8 9 9 11 11 8 16 16 14 12 12 16 16 17 17 17 18
5 4 6 7 8 8 9 12 13 16 16 16 16 16 15 15 14 14 14 14 14 14 14 13 13 13 13 12 12 12 15 15 13 12 12 12 13 14 14 13 15 16 16 15 16 17 18 18 18 14 18 17 20 20 20 19 18 17 16 16 13 13 13 13 13 12 14 10 8 8 9 10 11 9 15 16 16 16 16 16 16 17 18 16 13
7 7 7 7 8 8 8 12 11 13 17 17 16 15 15 15 15 15 15 15 15 15 15 15 14 14 13 13 14 8 5 5 5 7 9 11 11 13 14 14 15 15 16 16 16 17 18 19 17 17 20 22 19 21 21 22 19 19 17 16 14 13 13 14 12 12 12 8 9 9 10 11 11 10 15 18 18 17 16 15 15 16 15 11 12
7 7 7 7 7 8 8 12 13 13 15 16 16 15 16 16 15 15 15 15 16 16 15 15 15 14 14 13 12 4 7 7 9 9 10 11 13 12 13 13 13 15 16 17 17 16 19 19 16 18 20 23 18 19 19 22 21 21 19 17 15 14 14 15 12 13 9 10 10 10 9 11 11 10 16 18 18 17 16 11 11 10 11 11 12
9 7 7 8 9 7 15 16 15 15 14 15 15 15 16 16 15 16 16 16 17 16 16 16 16 16 15 14 7 7 8 10 11 12 13 14 13 12 13 13 13 13 15 17 17 18 18 19 17 20 21 24 21 22 23 21 19 19 20 18 15 15 14 13 15 10 10 11 11 10 6 3 10 10 18 18 18 16 10 10 11 12 13 16 17
8 7 7 7 7 7 15 15 17 17 14 14 15 16 17 17 16 17 17 17 17 17 17 17 16 17 13 8 8 9 10 12 12 14 14 13 12 13 14 14 14 13 14 15 17 18 18 18 17 20 23 22 22 24 22 20 19 20 20 18 16 14 14 15 11 10 11 12 11 10 11 10 11 12 18 21 21 16 13 14 15 18 19 20 20
6 6 6 7 10 10 15 16 15 16 16 16 16 17 17 17 17 17 17 17 17 17 17 17 17 15 10 10 10 10 11 12 12 13 14 13 12 12 14 15 14 13 13 14 16 18 19 17 17 20 20 21 23 21 21 22 22 21 19 18 15 13 14 13 10 12 11 12 10 11 12 10 10 16 19 20 21 20 18 18 20 20 21 19 19
6 6 6 7 8 8 14 15 16 16 17 17 18 17 17 17 17 17 17 17 16 17 17 17 16 13 10 11 11 11 11 12 13 14 14 13 12 12 14 15 14 14 14 14 15 17 19 17 18 19 22 18 21 20 23 22 24 22 18 13 11 11 13 9 12 11 11 12 11 12 11 9 11 16 18 21 23 22 20 18 15 18 20 22 22
7 7 6 7 8 9 10 14 15 14 15 17 17 17 18 18 17 16 16 16 16 17 17 17 14 13 11 11 11 11 11 13 13 14 14 13 12 13 14 14 14 14 14 14 14 16 19 16 19 18 20 22 23 25 23 24 25 21 18 15 11 9 5 10 11 11 11 11 11 12 10 9 14 13 16 19 25 23 20 19 17 19 18 20 21
6 6 7 8 8 7 8 10 14 13 12 13 13 14 15 16 16 16 16 17 17 17 17 16 14 12 12 12 12 12 12 13 13 13 13 13 13 13 14 14 13 14 14 14 13 14 16 15 19 22 25 24 28 24 23 26 24 21 21 16 14 13 6 9 10 11 11 11 11 11 10 10 17 19 18 17 23 22 20 21 21 19 21 22 23
6 6 7 8 8 8 7 9 11 11 12 12 12 12 11 12 13 15 15 16 15 17 17 14 15 12 12 12 12 11 11 13 13 13 12 12 12 12 13 13 13 11 11 11 11 11 12 16 16 20 16 22 25 26 24 25 21 20 18 15 14 12 7 5 7 10 10 11 10 10 9 11 14 19 20 19 22 22 22 21 22 23 22 22 22
6 7 9 9 9 9 8 8 9 11 12 13 13 13 12 12 12 12 12 12 12 14 15 14 12 11 10 11 10 10 10 10 12 11 11 10 9 11 11 12 13 13 9 8 10 8 14 18 18 19 24 22 22 24 25 23 19 15 17 13 13 13 9 4 6 7 10 9 10 10 10 12 14 19 21 20 20 21 21 24 24 23 24 23 22
7 8 9 9 10 9 10 9 9 10 12 12 12 14 14 13 12 12 12 11 12 11 11 11 11 10 10 10 10 9 9 10 8 8 8 8 6 5 6 10 9 10 11 8 11 12 18 16 20 23 22 23 24 25 24 26 23 20 15 16 16 14 12 7 6 5 7 8 10 11 10 12 14 19 19 23 23 25 24 24 24 24 23 24 23
7 9 9 10 9 10 9 9 9 10 10 11 12 13 13 14 14 14 13 12 12 12 11 11 10 10 9 10 9 9 9 9 10 8 9 5 4 7 6 6 6 8 11 12 12 14 18 16 18 20 23 23 23 22 22 22 21 20 19 18 16 15 9 6 8 10 10 6 8 9 12 14 14 17 21 22 22 24 24 22 23 23 24 24 23
6 9 9 9 10 11 12 9 10 11 11 11 11 12 13 11 13 14 13 13 13 12 12 12 10 9 10 9 9 9 10 9 8 8 7 8 6 6 6 3 2 4 4 6 10 14 17 18 24 24 22 21 19 17 17 22 20 19 20 18 16 10 6 7 9 10 8 7 9 10 15 12 18 20 22 22 22 23 24 23 23 23 23 23 22
6 7 9 10 10 10 12 11 9 12 11 9 8 9 10 11 15 14 13 14 12 12 11 13 12 11 10 9 8 9 8 9 8 8 7 6 7 8 6 6 3 0 4 1 11 14 16 17 25 27 24 22 22 15 14 15 20 20 18 19 12 7 6 7 6 9 9 9 9 12 15 13 15 21 22 19 20 20 21 23 24 23 22 22 22
8 7 7 9 9 9 9 11 12 11 12 11 10 10 13 12 13 14 12 13 13 12 14 14 13 12 10 9 9 9 9 8 7 5 5 5 6 8 9 8 7 3 5 9 4 15 15 16 24 24 24 25 15 12 12 13 11 17 16 11 8 7 7 7 5 4 7 9 8 15 16 21 18 18 20 22 22 19 20 22 22 22 23 22 21
13 10 9 6 7 9 10 11 12 12 10 9 9 10 11 12 11 11 12 12 14 13 13 15 13 12 10 9 9 9 8 8 6 7 6 6 6 8 11 10 8 4 5 10 12 6 16 23 28 26 19 11 11 8 6 7 8 9 8 8 8 8 7 5 5 5 5 7 9 16 16 20 16 20 20 22 21 20 20 23 22 22 24 23 21
11 11 10 10 10 10 10 11 11 11 12 10 10 10 10 11 11 10 11 12 13 14 14 14 14 13 10 9 9 8 7 7 6 6 7 6 7 7 7 8 6 4 5 6 7 10 14 15 6 15 10 10 10 9 7 4 4 5 7 8 8 5 6 5 4 4 5 7 9 13 16 18 20 21 21 21 23 19 19 21 22 23 22 22 21
13 12 14 13 12 10 10 10 9 11 11 11 10 9 11 11 11 12 12 11 12 12 13 12 12 12 10 9 9 8 7 7 8 8 7 7 9 8 9 8 7 5 5 6 6 8 9 13 13 12 10 9 8 7 6 5 3 4 4 5 6 6 6 6 5 4 4 6 8 16 16 15 18 20 22 23 24 22 21 22 22 22 22 21 21
12 13 14 13 13 13 12 11 11 11 13 13 12 10 10 12 12 12 12 11 9 10 12 13 14 14 11 9 9 9 9 10 9 9 8 8 9 8 8 6 7 7 7 7 8 8 7 10 13 14 6 8 7 5 6 5 3 4 6 6 5 5 4 5 6 6 4 4 6 14 13 15 20 22 20 22 24 23 22 21 22 22 22 21 20
14 16 15 14 13 16 14 12 12 12 11 12 13 12 10 11 12 10 8 10 9 12 12 13 13 13 13 11 12 12 11 10 10 9 10 8 8 8 7 6 7 5 9 8 9 6 9 6 10 18 9 7 7 4 5 5 4 4 5 6 5 5 5 5 5 5 6 5 4 7 14 14 11 16 21 20 20 22 21 20 20 20 21 21 21
18 19 16 16 17 15 15 14 14 14 12 12 12 12 11 11 12 13 11 11 11 13 13 12 12 12 13 14 13 12 12 11 11 10 9 9 8 8 8 8 9 8 7 8 8 7 10 11 11 13 12 7 5 5 4 5 4 3 5 6 4 5 6 6 5 5 5 6 6 3 6 12 13 13 14 17 18 19 20 20 20 19 20 21 21
18 18 17 16 16 17 17 16 15 13 13 12 11 12 12 12 11 11 12 9 12 13 13 11 12 12 12 14 14 14 13 11 11 11 11 10 10 9 9 9 9 8 8 6 8 8 10 7 13 15 12 11 5 5 5 4 4 3 3 6 5 4 7 6 5 5 7 5 4 2 6 13 12 14 15 17 19 20 20 20 20 21 21 22 24
16 18 17 16 16 17 17 17 15 14 12 12 12 13 14 13 12 11 10 11 14 11 10 12 9 11 12 13 14 14 12 11 11 11 10 10 9 9 8 9 9 8 9 8 7 7 9 6 7 16 15 11 10 6 6 5 3 3 3 5 6 5 5 6 5 5 6 7 5 4 7 13 11 13 14 14 18 20 21 22 22 22 23 23 23
16 17 15 15 17 19 18 16 15 13 13 13 13 13 14 14 13 11 11 12 14 10 11 11 10 12 12 12 14 14 13 11 10 11 11 11 10 10 10 10 10 9 8 8 7 9 10 10 0 10 16 16 11 9 7 8 5 2 3 3 5 5 6 5 6 6 6 5 6 7 7 8 12 14 15 16 19 19 20 22 22 23 24 23 23
13 15 16 16 17 16 16 17 15 15 14 14 13 13 13 14 14 11 10 9 9 10 11 11 12 11 11 13 13 15 14 11 9 11 11 10 11 11 11 9 11 11 11 12 8 6 9 7 8 3 12 12 12 10 9 8 9 7 3 4 5 5 5 5 5 6 6 5 5 6 7 8 9 10 13 14 15 17 20 21 22 22 23 23 24
14 13 17 18 14 11 11 12 14 16 15 14 13 12 13 13 12 9 9 9 10 11 10 11 11 11 11 13 13 15 14 13 10 11 11 10 11 11 12 11 10 10 9 10 9 8 10 11 9 7 8 13 13 11 10 9 8 7 6 5 5 6 5 6 4 5 3 6 5 5 8 7 5 7 9 14 15 16 20 22 22 21 21 22 23
15 16 19 18 17 15 12 11 15 16 15 15 14 13 13 13 12 11 10 7 6 9 12 11 10 10 11 12 14 14 16 14 13 12 11 10 11 11 12 12 11 10 11 12 9 10 10 13 13 12 7 9 11 10 10 10 9 9 6 6 7 5 5 5 5 4 5 6 8 8 8 7 6 6 6 9 10 13 15 18 22 21 21 21 23
17 16 17 17 18 17 16 15 17 17 16 15 14 14 13 12 12 11 10 11 9 8 6 9 9 10 12 10 15 16 16 15 14 12 10 9 11 11 12 12 13 11 13 12 13 11 10 13 12 11 12 9 11 11 10 10 9 9 7 6 6 5 4 4 3 4 1 5 8 9 6 7 7 6 7 7 6 7 14 16 18 18 19 20 22
16 18 18 18 19 19 17 18 18 18 18 18 15 15 13 13 11 11 13 13 12 11 10 7 6 9 8 9 13 15 16 15 13 12 12 11 11 12 12 14 14 11 14 15 13 13 9 12 14 12 12 11 12 13 10 9 8 8 8 7 6 6 3 4 4 5 3 4 8 6 10 9 9 9 6 7 7 6 10 15 17 17 17 15 19
15 18 18 17 18 17 16 16 17 17 16 16 15 14 13 13 12 11 11 12 12 10 10 10 9 7 9 11 13 14 15 16 13 14 13 11 11 11 12 15 13 12 13 14 12 14 14 12 14 12 10 11 10 13 12 10 8 8 7 6 6 6 4 3 4 3 5 5 8 10 9 6 8 7 6 7 8 7 8 13 15 16 17 16 17
17 20 19 18 17 16 15 17 17 18 17 16 17 15 14 12 11 12 11 13 12 12 14 12 11 10 10 13 12 14 14 14 14 16 14 11 11 11 12 14 13 12 14 13 14 13 13 12 13 13 9 11 12 12 13 11 10 8 8 7 5 5 4 3 3 5 6 4 5 7 5 6 6 7 6 8 8 5 10 8 8 8 11 17 17
17 19 21 19 19 18 15 15 16 17 16 15 14 14 14 13 13 12 10 10 12 13 14 15 12 12 12 15 14 13 14 13 16 15 13 12 11 11 12 13 13 10 13 15 15 14 15 16 14 15 12 8 8 11 11 11 9 10 10 7 5 5 6 4 4 4 5 4 4 4 5 5 7 7 5 7 6 6 7 7 8 9 9 14 17
17 18 19 20 19 18 18 19 16 16 15 14 14 14 14 14 14 14 15 11 9 11 14 16 14 15 14 14 14 14 15 16 16 16 15 12 12 12 13 12 13 13 11 13 15 16 16 14 12 12 15 12 9 10 12 13 12 8 9 9 7 5 5 6 5 4 4 3 4 4 5 7 7 8 6 7 8 7 6 5 5 7 8 7 10
19 20 20 21 21 20 18 18 15 16 14 15 14 13 13 12 13 14 14 15 13 10 12 12 14 13 18 18 13 14 12 14 14 16 14 15 13 13 13 15 13 14 16 14 14 15 14 13 12 9 11 14 11 14 14 16 10 9 9 7 7 5 4 5 5 5 3 3 4 6 5 6 8 6 6 6 8 7 5 5 5 5 6 8 8
16 15 16 17 18 17 17 17 16 16 15 14 14 14 14 14 14 14 14 14 13 13 12 11 12 15 15 18 18 15 15 14 13 15 16 16 14 15 14 15 16 15 13 12 12 14 14 16 16 14 10 7 9 10 15 13 10 13 11 9 5 5 2 3 3 4 3 3 4 5 5 4 7 7 5 7 8 6 5 5 6 6 6 7 6
15 14 14 15 13 14 15 16 17 16 15 15 14 16 16 16 15 14 15 14 15 14 14 13 15 15 17 17 17 20 18 16 14 14 13 14 13 16 15 13 15 13 14 14 15 15 14 14 15 14 13 12 10 10 10 12 12 13 13 9 7 7 6 4 5 1 2 4 4 5 5 4 3 4 3 7 8 7 4 6 7 6 6 6 6
15 14 13 13 11 15 17 16 14 14 14 15 16 16 15 15 14 16 14 13 12 11 10 11 14 15 15 13 17 19 14 14 15 15 13 15 15 16 15 15 13 11 13 17 15 16 16 14 14 14 15 16 13 10 10 7 15 10 10 10 4 7 6 7 8 2 2 4 5 3 4 5 4 4 4 6 4 6 5 6 6 5 5 5 4
18 17 15 14 14 13 16 16 14 13 13 14 15 13 13 14 14 15 16 15 15 14 14 12 11 12 14 13 14 14 15 13 13 15 16 15 18 17 15 14 14 11 13 13 13 14 15 16 14 14 16 14 14 15 12 6 11 15 11 1 3 6 12 10 10 5 2 3 3 3 3 3 2 1 3 4 6 6 6 6 5 6 5 4 4
21 18 16 16 16 15 14 15 15 13 12 12 14 12 13 13 14 13 13 14 15 14 14 15 14 13 13 16 13 14 17 16 16 16 14 14 17 16 15 14 12 12 10 11 15 18 16 16 15 13 13 12 13 16 16 14 9 7 10 5 5 4 7 14 9 8 6 1 3 2 3 3 3 2 4 5 6 7 5 4 6 5 5 4 4
21 19 18 17 18 16 15 15 14 14 13 13 13 11 10 12 14 14 12 13 15 17 18 16 15 14 15 14 14 13 14 16 16 16 15 16 16 16 15 15 17 13 13 12 15 15 13 14 15 15 12 12 13 13 15 13 13 8 9 7 7 6 12 8 9 15 13 11 5 2 3 3 3 2 2 1 3 5 6 4 4 5 4 3 3
22 20 18 17 16 16 15 15 17 16 15 16 13 12 11 10 11 11 12 11 13 13 15 14 14 14 15 15 12 14 14 16 14 14 14 16 13 14 16 15 15 15 14 10 11 13 16 17 16 15 14 13 12 11 11 11 10 12 10 4 8 9 10 7 6 4 8 9 5 6 4 2 3 2 1 2 2 2 3 4 3 4 4 3 4
21 21 21 19 18 17 17 18 19 17 16 17 15 14 13 10 10 11 14 13 12 13 13 15 15 14 15 16 15 13 14 16 16 16 16 17 16 15 15 16 16 17 15 13 12 13 14 16 18 17 17 16 11 10 14 10 10 12 12 10 9 9 10 8 7 8 7 11 13 12 10 10 8 2 1 1 1 2 2 3 4 3 3 4 4
23 23 22 21 20 18 18 20 20 18 18 18 17 15 13 11 10 11 12 13 14 13 13 15 16 16 14 15 17 15 13 13 13 15 15 14 17 18 16 18 17 15 15 16 15 15 13 16 16 17 17 17 13 11 10 13 12 11 13 10 10 11 10 10 9 9 10 8 7 9 7 7 9 9 3 1 1 2 1 2 3 3 3 4 4
Wind_Direction
212 203 204 184 241 203 201 204 204 201 198 199 199 198 198 201 199 201 203 207 208 208 207 206 202 200 202 204 207 211 221 227 230 234 237 235 234 232 232 233 239 241 238 235 232 227 224 223 223 223 211 197 206 196 204 194 187 165 167 163 159 155 158 164 151 138 137 131 131 130 133 138 131 128 126 124 121 117 120 123 129 119 120 115 113
171 193 194 193 209 221 201 206 204 202 203 204 203 205 206 208 203 201 203 210 216 217 216 217 214 214 215 215 216 218 225 234 238 236 239 239 235 237 236 235 238 243 242 239 235 232 228 224 225 224 212 196 199 188 206 195 187 177 166 163 161 160 169 158 136 138 130 130 134 131 136 134 131 132 130 128 123 126 135 151 138 128 116 121 119
166 179 191 195 197 226 209 204 206 203 204 205 205 209 212 215 213 205 204 212 219 222 228 233 234 231 228 227 224 224 227 234 241 240 237 242 238 236 239 240 239 242 245 244 240 236 233 228 225 224 214 200 196 189 195 198 187 172 166 165 165 167 162 143 143 139 133 132 127 126 122 128 130 134 135 131 128 131 121 129 113 112 123 127 127
201 185 188 191 212 247 220 216 205 205 205 207 209 214 219 222 223 211 211 215 223 228 229 234 239 239 236 233 232 234 233 235 235 238 237 238 236 233 232 240 244 245 245 247 246 242 236 231 227 225 216 200 200 183 191 218 185 167 170 167 162 155 146 143 143 137 134 127 128 136 139 137 133 139 139 137 131 127 114 111 112 117 126 126 125
216 193 186 195 204 220 228 229 212 207 205 207 209 216 218 225 225 222 221 226 228 229 228 232 235 237 238 236 236 234 234 232 236 234 238 238 235 232 229 231 241 246 247 247 247 246 241 234 229 225 205 188 214 192 178 203 174 170 159 139 130 136 146 140 139 134 132 137 147 160 145 143 138 144 146 141 133 125 121 117 125 130 127 130 127
201 197 190 196 201 206 215 230 223 212 209 211 212 216 219 222 224 226 232 241 239 232 231 231 234 235 238 243 245 252 241 233 234 242 240 239 236 232 228 226 232 238 245 247 247 246 244 237 230 226 189 182 191 180 177 195 183 159 145 134 132 138 146 134 139 133 131 144 175 166 149 141 143 148 152 147 139 137 134 131 130 128 131 130 128
195 197 199 198 200 212 193 223 226 214 213 212 214 217 219 220 224 225 232 237 237 236 235 232 235 239 239 240 241 240 251 241 230 236 237 236 233 233 232 230 231 236 238 243 246 246 245 242 233 226 189 181 177 189 178 196 172 155 135 127 136 139 139 140 141 139 137 154 167 152 152 148 142 147 155 151 146 147 143 139 136 137 135 133 131
190 199 206 205 210 204 185 215 227 216 213 216 216 218 220 221 224 227 232 238 237 237 236 236 237 239 242 241 243 248 237 238 231 237 246 244 237 235 238 237 238 234 237 241 242 246 245 243 235 218 190 177 181 192 181 177 176 150 141 138 139 140 139 140 141 147 159 162 157 156 154 148 146 149 156 155 153 151 146 142 140 140 137 134 126
189 196 207 212 213 215 197 220 229 228 215 218 219 220 222 223 225 227 232 235 238 237 237 237 237 236 238 241 242 249 296 271 236 242 250 255 251 247 240 235 238 244 242 243 241 243 244 244 236 210 190 182 188 184 179 175 170 152 141 143 144 137 139 143 149 157 177 154 159 155 153 153 151 152 160 160 158 152 148 140 139 134 128 123 133
189 192 207 212 221 195 212 225 225 230 224 219 222 223 225 226 226 227 232 233 235 237 238 238 238 236 240 242 240 203 238 249 244 242 248 250 251 253 249 238 238 246 250 247 241 240 243 243 228 209 183 182 190 183 189 176 161 160 149 148 147 147 139 146 149 174 164 162 158 152 157 155 157 159 162 164 154 147 144 147 136 133 124 115 114
192 190 204 218 222 203 215 216 222 223 227 227 228 227 228 230 230 231 232 232 234 234 236 238 238 238 240 240 222 225 227 235 238 239 240 242 246 250 255 250 245 248 251 249 243 240 242 243 213 197 194 179 190 183 180 164 156 157 155 153 152 144 140 143 166 172 167 163 156 155 125 218 159 161 158 151 147 142 124 114 114 122 127 127 126
199 199 205 217 224 212 218 216 216 220 229 234 236 238 235 233 234 235 236 235 235 235 234 237 239 238 237 209 201 220 230 233 236 240 242 242 247 249 250 248 245 246 252 254 247 243 242 240 207 201 186 184 182 180 170 157 156 162 156 151 152 145 144 154 176 169 168 160 152 152 158 178 158 141 152 151 146 135 126 128 133 134 131 130 128
212 208 214 220 224 223 221 219 219 221 225 230 237 241 240 239 241 239 238 238 239 238 237 237 238 234 209 201 205 219 232 234 234 238 239 238 242 247 252 251 248 248 248 250 248 241 244 238 204 206 195 184 180 181 170 164 165 158 154 149 145 142 150 170 172 169 167 160 152 159 160 165 151 143 151 151 141 135 135 140 139 135 129 125 120
230 217 225 231 231 225 226 226 225 226 225 228 231 238 243 242 243 242 242 240 241 238 238 238 232 216 206 211 215 220 230 238 237 235 239 243 239 242 249 253 254 253 249 247 248 243 243 233 205 204 198 195 179 177 173 164 162 153 136 127 134 140 149 174 167 168 164 159 157 159 164 153 151 145 156 158 140 136 135 130 131 130 126 124 125
244 225 228 235 237 239 233 234 231 233 234 232 235 236 239 242 244 244 246 246 242 238 239 241 220 206 207 214 216 218 226 236 241 239 238 238 241 243 247 252 258 262 261 251 244 242 242 230 204 203 209 192 187 178 169 160 153 135 131 127 115 116 169 167 169 164 161 162 160 159 154 151 126 142 154 163 137 130 129 130 130 124 124 126 122
243 239 226 237 239 237 230 237 241 242 244 244 244 243 242 241 242 242 247 249 243 240 241 240 213 203 207 211 218 221 230 238 240 241 237 238 240 243 246 251 258 266 269 264 250 243 237 214 207 203 203 201 180 177 167 154 144 134 137 128 139 141 195 187 168 163 162 164 160 161 148 137 144 151 158 159 133 133 135 133 133 134 133 128 126
233 235 237 235 240 244 235 232 232 242 253 255 252 252 254 250 247 242 243 247 245 240 243 234 221 206 207 211 217 223 227 234 240 241 240 242 242 245 248 250 256 260 254 259 254 245 229 193 204 206 197 173 161 153 151 146 136 133 130 138 146 140 153 207 160 163 164 161 161 156 144 141 157 156 156 150 138 139 136 134 133 132 130 130 126
240 238 237 237 234 237 243 238 233 236 238 240 247 253 254 249 246 242 240 238 242 246 247 231 213 209 211 213 215 216 224 229 235 243 259 250 241 245 253 254 253 250 257 270 251 223 173 186 193 172 155 157 149 150 144 140 139 127 129 133 132 144 146 163 155 162 160 156 157 147 145 140 153 153 153 140 139 135 142 137 135 139 130 127 123
253 243 242 240 237 234 236 239 237 236 238 240 240 235 238 247 247 242 235 230 230 239 242 222 216 212 211 212 213 215 220 230 239 248 263 246 217 235 237 243 245 263 259 254 230 214 185 189 187 163 162 159 155 154 151 147 148 148 138 136 143 148 144 152 160 144 142 163 157 149 141 142 160 153 148 146 143 143 145 136 136 129 128 124 121
248 249 249 244 243 238 233 234 233 232 234 237 239 240 227 227 240 241 231 225 227 231 229 226 221 216 214 214 215 221 224 232 230 241 235 211 195 233 208 239 256 269 259 254 242 218 192 175 169 174 166 159 161 151 148 147 147 146 145 146 141 135 148 147 152 153 162 159 157 143 134 148 153 152 150 147 147 144 135 134 135 133 127 124 122
234 239 240 245 241 242 238 236 234 233 232 236 241 239 241 213 224 234 231 225 224 228 226 219 218 219 219 212 219 228 236 233 216 226 170 210 188 193 183 209 164 44 15 244 243 217 195 185 174 167 159 159 151 135 135 138 145 146 146 141 137 139 145 150 151 158 155 146 152 139 144 155 166 158 153 145 145 136 133 135 136 133 126 121 122
256 249 235 236 240 239 240 238 238 232 231 231 235 236 237 227 235 233 227 227 223 225 219 223 218 229 204 216 220 229 231 232 226 219 210 189 174 176 162 161 133 61 333 262 208 210 201 192 172 166 160 152 138 138 140 135 143 146 145 141 141 133 136 145 147 153 152 158 153 138 137 147 168 158 147 148 143 136 140 137 135 130 128 127 126
284 267 259 241 239 251 246 238 236 235 228 227 234 235 235 235 232 232 231 223 224 214 224 217 225 221 223 214 219 227 226 226 228 210 230 183 184 159 150 137 120 136 38 60 157 202 178 195 172 166 155 143 139 140 144 143 142 137 141 140 134 127 134 141 137 137 156 152 145 142 151 161 169 147 147 147 141 139 139 136 138 138 130 130 127
323 317 302 284 254 250 254 249 246 240 234 229 232 234 234 233 233 230 228 227 222 218 218 224 221 218 215 214 224 225 217 223 93 101 120 176 167 163 146 123 118 149 108 56 50 153 183 179 179 149 133 130 121 114 110 126 137 140 136 128 127 126 126 119 131 142 133 148 143 152 148 157 164 155 157 143 136 138 144 137 139 138 133 132 132
319 312 302 291 274 257 252 252 251 250 241 238 233 237 233 231 230 228 226 225 223 221 220 220 223 219 209 215 221 220 214 219 204 201 209 195 182 180 162 155 144 128 74 71 77 82 88 71 355 123 113 112 112 113 116 113 113 125 125 126 124 109 103 102 114 131 131 134 138 148 142 153 165 155 154 145 133 140 135 134 137 135 132 134 134
339 327 321 314 305 285 265 261 256 250 249 244 239 239 240 233 228 227 228 223 222 217 219 217 217 215 209 210 213 217 214 215 217 212 205 198 194 190 198 185 152 139 115 104 88 73 85 93 91 25 60 74 71 83 69 69 101 110 100 106 103 112 123 118 111 108 118 123 136 138 141 151 156 154 149 140 135 136 137 137 134 133 133 135 133
348 339 330 324 316 306 292 273 261 253 249 248 250 244 242 238 233 226 225 226 218 218 218 216 219 217 212 203 212 218 220 218 213 210 207 200 194 188 191 164 149 156 132 131 109 88 69 102 114 103 68 74 77 74 90 88 72 106 107 78 101 108 108 121 130 128 123 126 136 153 152 159 165 156 152 148 142 139 136 137 133 133 136 136 139
356 352 348 338 327 318 308 288 271 263 256 249 246 245 242 244 236 231 223 227 222 219 217 215 216 217 216 213 217 219 216 216 215 205 203 202 189 184 174 159 153 155 151 140 125 111 107 99 120 115 105 96 95 89 102 97 105 114 115 91 96 103 105 115 137 124 126 127 106 142 151 162 178 160 160 157 152 143 142 143 138 143 143 142 141
4 358 351 348 341 333 320 301 288 274 266 261 252 248 245 243 241 231 226 223 219 217 218 216 213 215 213 213 210 215 217 218 214 203 195 194 185 178 171 166 157 153 148 142 131 132 131 133 124 112 118 112 110 109 96 103 106 102 123 100 103 111 113 129 133 123 128 127 140 115 149 165 172 160 155 148 146 146 146 146 147 150 150 144 141
4 0 0 356 348 340 330 317 303 289 278 268 259 252 247 245 239 233 228 220 225 221 221 217 215 210 210 210 211 217 220 217 213 202 192 186 175 166 165 155 158 154 149 147 142 139 137 161 130 121 123 133 127 119 114 97 90 110 118 120 111 129 131 138 143 137 120 105 88 81 169 151 152 153 153 155 151 149 150 147 148 149 147 144 143
358 1 359 353 347 344 340 330 316 299 283 277 269 259 252 245 241 236 229 224 226 224 220 220 212 208 206 204 207 213 217 216 210 203 190 177 163 165 170 155 147 158 157 149 158 148 146 159 153 137 138 141 141 146 129 123 108 124 116 114 121 131 112 134 131 116 120 135 118 129 154 144 145 137 143 154 155 157 154 148 150 149 145 145 143
356 358 356 351 354 353 345 339 331 318 300 284 277 267 257 255 245 242 241 228 225 219 221 219 213 212 208 202 206 212 216 218 208 199 197 177 165 170 172 160 155 160 153 148 151 157 143 140 188 148 142 140 146 147 146 135 132 162 133 151 136 133 132 131 134 129 123 112 123 131 135 135 128 134 146 155 159 158 152 148 151 148 143 143 140
353 350 351 351 353 350 347 340 336 326 311 298 286 278 268 257 255 249 240 232 223 217 224 216 218 215 211 206 206 213 214 215 201 196 197 182 171 166 171 166 164 161 158 153 129 146 132 124 120 137 134 134 138 142 145 145 148 154 168 157 125 123 128 123 127 127 130 118 128 128 130 134 134 136 143 149 153 156 150 144 146 146 143 143 139
351 349 349 350 350 351 346 340 337 331 320 305 295 288 276 265 256 243 239 228 221 217 218 219 218 217 213 210 208 211 215 216 208 200 196 191 174 170 170 172 164 148 140 141 146 153 141 137 133 140 145 141 144 147 146 144 144 144 153 148 130 139 133 137 140 139 131 132 137 138 134 133 135 145 143 147 159 159 151 145 146 144 145 146 142
350 353 352 344 345 349 347 343 342 338 329 318 306 296 288 273 256 244 239 228 240 228 215 217 216 212 214 213 210 211 213 214 210 203 199 195 181 171 175 176 161 155 155 151 156 160 153 147 148 144 153 143 139 143 142 142 142 140 148 141 136 121 126 135 142 134 158 143 150 150 141 131 134 140 146 147 162 160 147 147 152 149 150 150 148
349 348 348 347 345 348 345 344 341 339 336 331 318 305 295 284 269 249 239 235 227 228 242 224 207 213 215 215 210 212 214 213 207 198 195 195 189 178 176 169 165 158 160 162 158 161 157 153 156 147 150 152 143 144 145 142 146 141 145 135 131 132 126 133 148 116 55 154 152 138 130 132 141 141 143 142 157 155 149 149 149 148 150 152 154
346 348 347 347 347 345 344 345 343 339 337 333 328 316 307 295 273 262 243 226 225 227 217 232 232 210 206 221 214 209 208 210 199 194 197 196 197 187 176 169 168 159 161 163 165 160 158 158 161 158 154 151 154 144 141 139 140 139 137 133 123 127 108 121 115 133 134 151 141 122 144 145 140 138 146 150 149 161 151 148 147 145 143 152 157
345 348 348 348 344 344 343 342 339 340 337 332 330 327 315 307 294 270 255 251 241 224 226 224 226 221 216 215 216 212 208 207 196 199 200 194 193 186 177 173 166 158 161 165 162 164 163 167 159 158 154 148 156 149 143 140 132 130 127 118 113 128 113 102 83 84 125 159 151 149 147 133 142 133 144 155 148 149 145 144 143 139 143 151 160
349 348 348 348 345 346 345 344 342 342 339 334 334 331 324 313 299 286 270 252 234 228 219 215 220 224 222 217 211 214 209 204 200 201 202 185 188 182 179 177 171 159 162 162 157 162 161 162 158 154 157 159 155 153 143 141 135 127 121 110 91 97 92 93 122 142 131 147 137 142 132 141 134 136 141 142 135 120 145 144 144 143 147 150 160
348 347 346 348 347 344 344 344 344 341 339 338 337 336 334 328 317 307 280 265 252 238 228 220 212 213 215 222 209 211 209 201 201 202 198 181 177 176 178 177 175 162 159 162 163 164 165 160 157 151 150 153 152 140 136 128 120 119 114 96 80 86 97 104 90 111 121 132 131 155 149 144 138 139 135 131 124 112 139 144 146 149 148 156 160
350 349 347 346 345 345 343 344 343 342 340 341 341 338 335 330 326 314 307 294 258 250 234 226 221 217 212 212 211 204 204 200 198 198 199 171 177 172 174 178 174 177 167 164 159 162 165 160 151 157 150 152 149 147 141 130 122 108 111 108 87 59 84 92 86 79 73 119 117 132 145 154 147 142 141 133 132 122 127 134 141 134 139 133 149
347 348 350 348 344 341 342 340 340 341 342 340 336 332 329 323 317 313 306 298 292 255 242 239 228 222 219 214 207 206 200 201 193 191 196 186 180 173 168 177 178 179 176 165 160 160 159 150 151 156 159 157 156 157 153 135 142 142 134 126 99 79 62 74 69 58 59 114 129 126 142 159 158 147 134 129 136 126 126 130 132 127 127 134 135
334 337 341 338 339 339 338 337 337 339 339 340 336 333 328 323 315 306 305 298 286 284 269 236 230 230 224 222 210 196 191 198 186 187 190 187 180 176 177 177 181 179 167 160 154 156 162 160 162 159 161 162 148 166 162 155 141 143 130 113 155 133 144 90 66 46 22 63 101 122 125 135 153 156 141 129 141 133 127 133 135 129 126 129 130
330 331 334 333 332 332 331 331 333 335 335 336 333 331 327 319 314 309 307 299 294 292 282 263 242 229 227 221 217 211 203 200 192 184 175 184 175 179 178 177 178 177 169 164 161 159 162 167 166 160 157 146 162 180 184 155 146 151 156 162 156 140 138 187 143 49 358 32 63 103 128 117 108 177 148 139 138 137 127 131 128 122 122 125 125
327 326 326 327 327 327 329 326 324 326 328 333 334 333 331 331 329 323 318 312 302 288 281 266 248 234 231 228 220 209 201 200 191 197 187 176 178 182 176 176 171 171 175 170 166 168 165 166 169 161 169 164 162 158 188 174 162 169 133 132 140 176 183 143 132 53 36 75 37 26 85 80 139 166 174 141 109 128 127 124 120 120 120 120 115
330 327 322 319 319 319 321 324 320 318 321 326 331 332 331 332 334 333 330 325 315 308 300 290 267 243 233 226 227 213 198 191 189 195 192 182 184 181 175 172 172 169 182 181 169 162 162 164 173 173 172 175 158 161 167 201 179 165 171 129 82 145 155 162 155 162 11 58 80 31 38 46 43 27 158 128 138 130 139 131 132 133 127 123 118
326 322 317 316 318 318 316 314 315 312 312 313 323 326 328 332 331 327 321 316 311 302 298 295 289 270 244 232 220 213 208 186 187 186 185 184 186 179 176 175 172 171 179 180 170 172 172 169 167 172 174 172 165 163 169 170 182 188 176 135 101 77 138 152 166 103 146 121 64 60 38 26 31 26 165 154 142 142 137 136 131 126 123 124 129
326 320 314 309 308 311 310 310 308 309 308 310 316 321 322 326 325 324 323 322 317 310 306 299 294 290 270 235 218 215 214 205 190 188 183 176 183 184 178 175 179 177 171 185 179 172 167 169 170 174 167 170 180 169 167 167 176 173 164 116 106 117 151 174 166 168 158 155 183 10 69 36 50 37 340 141 127 140 138 127 115 124 125 127 131
324 319 310 303 301 303 305 306 309 309 310 311 310 313 311 314 316 316 320 318 313 313 309 299 290 288 274 253 224 209 208 210 205 192 181 179 179 180 179 182 178 174 175 173 175 173 173 172 173 169 172 177 186 177 165 176 172 163 154 129 131 143 158 161 126 116 150 141 127 165 152 19 53 36 14 336 9 35 111 126 124 128 138 139 138
321 317 309 303 301 301 302 303 304 307 308 307 305 303 304 303 306 313 314 317 320 317 317 312 303 296 286 267 240 216 209 208 204 196 192 187 178 180 184 184 178 179 176 176 173 176 179 176 178 177 172 174 180 181 180 172 177 166 169 153 150 151 156 160 165 156 149 167 160 178 170 163 169 216 18 331 54 100 118 125 137 148 153 151 144
317 315 313 309 302 298 300 299 298 300 303 304 303 298 300 298 300 305 309 314 317 317 320 321 318 307 295 288 262 230 209 206 205 201 187 180 180 179 179 186 182 175 176 176 174 175 178 183 181 178 175 173 177 183 177 179 182 168 174 170 165 164 159 167 163 173 162 162 155 167 151 175 170 153 164 87 65 70 98 139 150 160 170 157 154